404 - Page Not Found

404

Error - Page Not Found


Please check the URL.

Otherwise, click here to be redirected to the homepage.

  • Currently

    Reported at Minneapolis, Minneapolis-St. Paul International Airport, MN
    1:53 PM CST FRI FEB 23 2018
  • 32°F0°C
  • Partly Cloudy
    Partly Cloudy
  • Feels Like:25°F-4°CDew Point:21°F-6°CHumidity:64% Winds:SSW 9 mph 14 kph
    Pressure:30.18 in1022 hPaVisibility:10.00 miles16090.00 meters
Time Weather Temp Dew Point
Humidity Winds Visibility Pressure Precipitation
1 hr 24 hr
Tuesday, February 13
00:53 00:53 Clear Clear 25°F-4°C 21°F-6°C 85% SW 9 mphSW 15 kph 8.0 miles12.9 km 30 in1016 hPa 0.00 in0.00 mm --
23:53 23:53 Clear Clear 25°F-4°C 21°F-6°C 85% SW 8 mphSW 13 kph 8.0 miles12.9 km 30.03 in1017 hPa 0.00 in0.00 mm --
22:53 22:53 Clear Clear 26°F-3°C 21°F-6°C 81% SW 9 mphSW 15 kph 8.0 miles12.9 km 30.03 in1017 hPa 0.00 in0.00 mm --
21:53 21:53 Clear Clear 25°F-4°C 20°F-7°C 81% SSW 8 mphSSW 13 kph 9.0 miles14.5 km 30.06 in1018 hPa 0.00 in0.00 mm --
20:53 20:53 Clear Clear 25°F-4°C 19°F-7°C 78% SSW 9 mphSSW 15 kph 9.0 miles14.5 km 30.09 in1019 hPa 0.00 in0.00 mm --
19:53 19:53 Clear Clear 26°F-3°C 19°F-7°C 75% SSW 13 mphSSW 20 kph 10.0 miles16.1 km 30.09 in1019 hPa 0.00 in0.00 mm --
18:53 18:53 Clear Clear 27°F-3°C 19°F-7°C 72% S 13 mphS 20 kph 10.0 miles16.1 km 30.09 in1019 hPa 0.00 in0.00 mm --
17:53 17:53 Sunny Sunny 29°F-2°C 19°F-7°C 66% SW 13 mphSW 20 kph 10.0 miles16.1 km 30.12 in1020 hPa 0.00 in0.00 mm --
16:53 16:53 Sunny Sunny 30°F-1°C 18°F-8°C 61% SSW 13 mphSSW 20 kph 10.0 miles16.1 km 30.12 in1020 hPa 0.00 in0.00 mm --
15:53 15:53 Sunny Sunny 30°F-1°C 18°F-8°C 61% SW 15 mphSW 24 kph 10.0 miles16.1 km 30.18 in1022 hPa 0.00 in0.00 mm --
14:53 14:53 Sunny Sunny 29°F-2°C 18°F-8°C 63% S 12 mphS 19 kph 10.0 miles16.1 km 30.18 in1022 hPa 0.00 in0.00 mm --
13:53 13:53 Mostly Sunny Mostly Sunny 28°F-2°C 16°F-9°C 60% SW 14 mphSW 22 kph 10.0 miles16.1 km 30.24 in1024 hPa 0.00 in0.00 mm --
12:53 12:53 Mostly Cloudy Mostly Cloudy 23°F-5°C 11°F-12°C 60% S 10 mphS 17 kph 10.0 miles16.1 km 30.3 in1026 hPa 0.00 in0.00 mm --
11:53 11:53 Cloudy Cloudy 22°F-6°C 8°F-13°C 55% S 16 mphS 26 kph 10.0 miles16.1 km 30.33 in1027 hPa 0.00 in0.00 mm --
10:53 10:53 Cloudy Cloudy 18°F-8°C 5°F-15°C 57% S 10 mphS 17 kph 10.0 miles16.1 km 30.36 in1028 hPa 0.00 in0.00 mm --
09:53 09:53 Cloudy Cloudy 14°F-10°C 4°F-16°C 64% SE 7 mphSE 11 kph 10.0 miles16.1 km 30.42 in1030 hPa 0.00 in0.00 mm --
08:53 08:53 Cloudy Cloudy 11°F-12°C 3°F-16°C 70% SE 5 mphSE 7 kph 10.0 miles16.1 km 30.45 in1031 hPa 0.00 in0.00 mm --
07:53 07:53 Mostly Cloudy Mostly Cloudy 10°F-12°C 1°F-17°C 67% S 3 mphS 6 kph 10.0 miles16.1 km 30.45 in1031 hPa 0.00 in0.00 mm --
06:53 06:53 Mostly Cloudy Mostly Cloudy 11°F-12°C 1°F-17°C 64% SE 8 mphSE 13 kph 10.0 miles16.1 km 30.48 in1032 hPa 0.00 in0.00 mm --
05:53 05:53 Cloudy Cloudy 10°F-12°C 1°F-17°C 67% ESE 7 mphESE 11 kph 10.0 miles16.1 km 30.5 in1033 hPa 0.00 in0.00 mm --
04:53 04:53 Cloudy Cloudy 9°F-13°C 0°F-18°C 66% ESE 10 mphESE 17 kph 10.0 miles16.1 km 30.56 in1035 hPa 0.00 in0.00 mm --
03:53 03:53 Cloudy Cloudy 8°F-13°C -2°F-19°C 63% ESE 10 mphESE 17 kph 10.0 miles16.1 km 30.59 in1036 hPa 0.00 in0.00 mm --
02:53 02:53 Cloudy Cloudy 7°F-14°C -2°F-19°C 66% SE 8 mphSE 13 kph 10.0 miles16.1 km 30.62 in1037 hPa 0.00 in0.00 mm --
01:53 01:53 Cloudy Cloudy 7°F-14°C -3°F-19°C 63% SE 5 mphSE 7 kph 10.0 miles16.1 km 30.68 in1039 hPa 0.00 in0.00 mm --
404 - Page Not Found

404

Error - Page Not Found


Please check the URL.

Otherwise, click here to be redirected to the homepage.